CW9804 Weather Reports


Display with metric or nautical units.
time (UTC)temp
F
wind
direction
speed
MPH
gust
MPH
rain 1hr
in
rain 24hr
in
rain mn
in
humidity
%
barometer
mb
20260903120410 83 12 0.0 4.0 0.00 0.00 0.00 43 1020.6
20260903114910 83 259 2.0 7.0 0.00 0.00 0.00 43 1020.7
20260903113410 82 68 1.0 4.0 0.00 0.00 0.00 46 1020.9
20260903111910 81 40 3.0 4.0 0.00 0.00 0.00 46 1021.0
20260903110410 81 90 1.0 3.0 0.00 0.00 0.00 50 1021.0
20260903104911 80 55 2.0 5.0 0.00 0.00 0.00 52 1021.2
20260903103411 79 91 1.0 3.0 0.00 0.00 0.00 54 1021.4
20260903101912 77 224 2.0 3.0 0.00 0.00 0.00 59 1021.7
20260903100411 77 309 1.0 3.0 0.00 0.00 0.00 61 1021.9
20260903094911 76 317 1.0 4.0 0.00 0.00 0.00 64 1022.2
20260903093411 75 13 1.0 3.0 0.00 0.00 0.00 64 1022.1
20260903091911 74 243 0.0 4.0 0.00 0.00 0.00 69 1022.4
20260903090411 73 315 2.0 5.0 0.00 0.00 0.00 71 1022.5
20260903084910 72 302 2.0 5.0 0.00 0.00 0.00 73 1022.6
20260903083410 72 314 2.0 5.0 0.00 0.00 0.00 73 1022.8
20260903034911 65 227 3.0 5.0 0.00 0.00 0.00 81 1021.4
20260903033411 64 232 3.0 4.0 0.00 0.00 0.00 84 1021.6
20260903031911 64 227 3.0 4.0 0.00 0.00 0.00 86 1021.7
20260903030411 64 222 3.0 5.0 0.00 0.00 0.00 88 1021.7
20260903024914 64 182 1.0 3.0 0.00 0.00 0.00 89 1021.7
20260903023414 65 182 0.0 3.0 0.00 0.00 0.00 88 1021.6
20260903020413 66 180 0.0 2.0 0.00 0.00 0.00 83 1021.4
20260903013413 68 153 1.0 2.0 0.00 0.00 0.00 80 1021.6
20260903010413 68 228 2.0 4.0 0.00 0.00 0.00 81 1021.6
20260903004912 67 251 3.0 7.0 0.00 0.00 0.00 82 1021.6
20260903003412 67 227 0.0 2.0 0.00 0.00 0.00 81 1021.5
20260903001912 67 228 3.0 4.0 0.00 0.00 0.00 82 1021.5
20260903000412 66 236 2.0 4.0 0.00 0.00 0.00 82 1021.5
20260902234912 65 236 2.0 3.0 0.00 0.00 0.00 85 1021.6
20260902231912 65 159 1.0 2.0 0.00 0.00 0.00 85 1021.4
20260902230412 64 159 0.0 1.0 0.00 0.00 0.00 85 1021.3
20260902223411 66 159 2.0 2.0 0.00 0.00 0.00 81 1021.0
20260902221911 65 159 0.0 0.0 0.00 0.00 0.00 82 1020.8
20260902220411 66 159 0.0 0.0 0.00 0.00 0.00 81 1021.0
20260902214911 66 159 1.0 2.0 0.00 0.24 0.24 79 1021.1
20260902213411 66 159 1.0 2.0 0.00 0.24 0.24 81 1021.1
20260902171911 75 95 0.0 1.0 0.00 0.24 0.24 70 1019.2
20260902170411 77 95 1.0 2.0 0.00 0.24 0.24 65 1019.1
20260902164911 78 95 2.0 3.0 0.00 0.24 0.24 62 1019.2
20260902163411 79 80 0.0 0.0 0.00 0.24 0.24 65 1019.4
20260902161910 79 80 0.0 0.0 0.00 0.24 0.24 62 1019.2
20260902160410 80 80 0.0 2.0 0.00 0.24 0.24 59 1019.3
20260902154911 81 59 2.0 4.0 0.00 0.24 0.24 56 1019.3
20260902153411 81 110 3.0 6.0 0.00 0.24 0.24 54 1019.2
20260902151911 81 53 2.0 6.0 0.00 0.24 0.24 58 1019.3
20260902150411 81 39 1.0 4.0 0.00 0.24 0.24 55 1019.3
20260902144911 82 55 1.0 4.0 0.00 0.24 0.24 57 1019.6
20260902143411 81 45 3.0 5.0 0.00 0.24 0.24 55 1019.6
20260902141910 81 34 1.0 6.0 0.00 0.24 0.24 57 1019.9
20260902140410 81 49 3.0 8.0 0.00 0.24 0.24 56 1020.2
20260902134910 81 96 3.0 6.0 0.00 0.24 0.24 57 1020.2
20260902133410 82 131 0.0 4.0 0.00 0.24 0.24 54 1020.3
20260902131910 81 166 1.0 5.0 0.00 0.24 0.24 57 1020.6
20260902130410 80 53 0.0 4.0 0.00 0.24 0.24 57 1020.7
20260902124911 79 96 3.0 9.0 0.00 0.24 0.24 56 1020.9
20260902123411 79 46 3.0 4.0 0.00 0.24 0.24 58 1021.0
20260902121911 78 360 1.0 4.0 0.00 0.24 0.24 58 1021.2